User: anonymous   Login
Location: Peebles
(55.6412°N, 3.1714°W)
Time: 06:53:43
(UTC+00:00)
Language:

ITUPSAT 1 - Orbit

View from above orbital plane
View from above orbital plane
View from above satellite
View from above satellite

Ground track
Ground track

The orbit data is extracted from the following two-line orbital elements,

1 35935U 09051E   22333.54723676  .00000503  00000-0  12491-3 0  9991
2 35935  98.5484 195.4494 0006946 279.3643  80.6768 14.56178788699903
Epoch (UTC): 29 November 2022 13:08:01
Eccentricity: 0.0006946
inclination: 98.5484°
perigee height: 700 km
apogee height: 710 km
right ascension of ascending node: 195.4494°
argument of perigee: 279.3643°
revolutions per day: 14.56178788
mean anomaly at epoch: 80.6768°
orbit number at epoch: 69990

The dashed part of the orbit path shows where the satellite is in the earth's shadow,  

DLR